| time (UTC) | temp C | wind direction | speed KPH | gust KPH | rain 1hr cm | rain 24hr cm | rain mn cm | humidity % | barometer mb |
| 20260503054553 | 10 | 350 | 0.0 | 0.0 | 0.00 | 0.00 | 0.00 | 68 | 1013.4 |
| 20260503053142 | 10 | 333 | 0.0 | 0.0 | 0.00 | 0.00 | 0.00 | 66 | 1013.4 |
| 20260503051548 | 11 | 333 | 0.0 | 0.0 | 0.00 | 0.00 | 0.00 | 63 | 1013.4 |
| 20260503050040 | 12 | 333 | 0.0 | 0.0 | 0.00 | 0.00 | 0.00 | 60 | 1013.3 |
| 20260503044539 | 12 | 333 | 0.0 | 0.0 | 0.00 | 0.00 | 0.00 | 57 | 1013.3 |
| 20260503043041 | 12 | 333 | 0.0 | 0.0 | 0.00 | 0.00 | 0.00 | 54 | 1013.3 |
| 20260503041539 | 13 | 333 | 0.0 | 0.0 | 0.00 | 0.00 | 0.00 | 50 | 1013.1 |
| 20260503040038 | 15 | 333 | 0.0 | 0.0 | 0.00 | 0.00 | 0.00 | 47 | 1013.0 |
| 20260503034543 | 15 | 333 | 0.0 | 0.0 | 0.00 | 0.00 | 0.00 | 45 | 1012.8 |
| 20260503033050 | 16 | 333 | 0.0 | 0.0 | 0.00 | 0.00 | 0.00 | 42 | 1012.7 |
| 20260503031539 | 17 | 333 | 0.0 | 0.0 | 0.00 | 0.00 | 0.00 | 39 | 1012.4 |
| 20260503030038 | 18 | 333 | 0.0 | 0.0 | 0.00 | 0.00 | 0.00 | 34 | 1012.2 |
| 20260503024544 | 19 | 333 | 0.0 | 0.0 | 0.00 | 0.00 | 0.00 | 33 | 1012.1 |
| 20260503023037 | 19 | 333 | 0.0 | 0.0 | 0.00 | 0.00 | 0.00 | 33 | 1012.1 |
| 20260503021536 | 20 | 333 | 0.0 | 0.0 | 0.00 | 0.00 | 0.00 | 32 | 1012.1 |
| 20260503020035 | 20 | 323 | 0.0 | 0.0 | 0.00 | 0.00 | 0.00 | 31 | 1012.1 |
| 20260503014534 | 21 | 323 | 0.0 | 1.6 | 0.00 | 0.00 | 0.00 | 29 | 1012.1 |
| 20260503013036 | 21 | 348 | 0.0 | 4.8 | 0.00 | 0.00 | 0.00 | 28 | 1012.2 |
| 20260503011534 | 22 | 323 | 0.0 | 6.4 | 0.00 | 0.00 | 0.00 | 26 | 1012.2 |
| 20260503010033 | 22 | 326 | 0.0 | 6.4 | 0.00 | 0.00 | 0.00 | 25 | 1012.3 |
| 20260503004536 | 22 | 85 | 0.0 | 6.4 | 0.00 | 0.00 | 0.00 | 26 | 1012.4 |
| 20260503003036 | 23 | 356 | 0.0 | 6.4 | 0.00 | 0.00 | 0.00 | 24 | 1012.4 |
| 20260503001529 | 23 | 6 | 0.0 | 6.4 | 0.00 | 0.00 | 0.00 | 24 | 1012.4 |
| 20260503000028 | 23 | 323 | 0.0 | 6.4 | 0.00 | 0.00 | 0.00 | 25 | 1012.3 |
| 20260502234532 | 24 | 316 | 1.6 | 9.7 | 0.00 | 0.00 | 0.00 | 21 | 1012.4 |
| 20260502233026 | 24 | 348 | 0.0 | 3.2 | 0.00 | 0.00 | 0.00 | 21 | 1012.5 |
| 20260502231527 | 25 | 329 | 3.2 | 9.7 | 0.00 | 0.00 | 0.00 | 20 | 1012.7 |
| 20260502230022 | 24 | 156 | 1.6 | 8.0 | 0.00 | 0.00 | 0.00 | 20 | 1012.7 |
| 20260502224520 | 25 | 334 | 1.6 | 11.3 | 0.00 | 0.00 | 0.00 | 26 | 1013.0 |
| 20260502223018 | 24 | 307 | 0.0 | 9.7 | 0.00 | 0.00 | 0.00 | 22 | 1013.1 |
| 20260502221516 | 25 | 141 | 0.0 | 8.0 | 0.00 | 0.00 | 0.00 | 22 | 1013.2 |
| 20260502220019 | 24 | 168 | 0.0 | 11.3 | 0.00 | 0.00 | 0.00 | 20 | 1013.4 |
| 20260502214511 | 24 | 72 | 0.0 | 8.0 | 0.00 | 0.00 | 0.00 | 21 | 1013.6 |
| 20260502213024 | 25 | 351 | 1.6 | 11.3 | 0.00 | 0.00 | 0.00 | 21 | 1013.6 |
| 20260502211514 | 24 | 206 | 0.0 | 6.4 | 0.00 | 0.00 | 0.00 | 23 | 1013.8 |
| 20260502210008 | 25 | 285 | 1.6 | 8.0 | 0.00 | 0.00 | 0.00 | 21 | 1014.0 |
| 20260502204505 | 24 | 165 | 0.0 | 6.4 | 0.00 | 0.00 | 0.00 | 27 | 1014.1 |
| 20260502203004 | 23 | 312 | 0.0 | 11.3 | 0.00 | 0.00 | 0.00 | 22 | 1014.3 |
| 20260502201505 | 23 | 163 | 1.6 | 3.2 | 0.00 | 0.00 | 0.00 | 21 | 1014.5 |
| 20260502200109 | 23 | 347 | 0.0 | 3.2 | 0.00 | 0.00 | 0.00 | 27 | 1014.6 |
| 20260502194602 | 23 | 170 | 3.2 | 8.0 | 0.00 | 0.00 | 0.00 | 25 | 1014.6 |
| 20260502193112 | 22 | 333 | 0.0 | 8.0 | 0.00 | 0.00 | 0.00 | 23 | 1014.9 |
| 20260502191553 | 23 | 169 | 3.2 | 11.3 | 0.00 | 0.00 | 0.00 | 22 | 1015.0 |
| 20260502190052 | 22 | 113 | 1.6 | 6.4 | 0.00 | 0.00 | 0.00 | 24 | 1015.1 |
| 20260502184556 | 23 | 174 | 1.6 | 8.0 | 0.00 | 0.00 | 0.00 | 24 | 1015.2 |
| 20260502183047 | 22 | 207 | 0.0 | 3.2 | 0.00 | 0.00 | 0.00 | 31 | 1015.3 |
| 20260502181545 | 22 | 113 | 0.0 | 4.8 | 0.00 | 0.00 | 0.00 | 36 | 1015.5 |
| 20260502163014 | 13 | 174 | 1.6 | 4.8 | 0.00 | 0.00 | 0.00 | 58 | 1016.3 |
| 20260502161509 | 12 | 175 | 0.0 | 1.6 | 0.00 | 0.00 | 0.00 | 65 | 1016.4 |
| 20260502151611 | 8 | 175 | 0.0 | 0.0 | 0.00 | 0.00 | 0.00 | 78 | 1016.7 |
| 20260502123040 | 2 | 165 | 0.0 | 0.0 | 0.00 | 0.00 | 0.00 | 88 | 1016.6 |
| 20260502121538 | 3 | 165 | 0.0 | 0.0 | 0.00 | 0.00 | 0.00 | 88 | 1016.4 |
| 20260502114537 | 2 | 165 | 0.0 | 0.0 | 0.00 | 0.00 | 0.00 | 88 | 1016.5 |
| 20260502113043 | 2 | 165 | 0.0 | 0.0 | 0.00 | 0.00 | 0.00 | 88 | 1016.4 |
| 20260502111533 | 2 | 166 | 0.0 | 0.0 | 0.00 | 0.00 | 0.00 | 88 | 1016.5 |
| 20260502110036 | 3 | 165 | 0.0 | 0.0 | 0.00 | 0.00 | 0.00 | 88 | 1016.4 |
| 20260502104534 | 3 | 166 | 0.0 | 0.0 | 0.00 | 0.00 | 0.00 | 88 | 1016.3 |
| 20260502103029 | 3 | 165 | 0.0 | 0.0 | 0.00 | 0.00 | 0.00 | 88 | 1016.4 |
| 20260502101528 | 3 | 165 | 0.0 | 0.0 | 0.00 | 0.00 | 0.00 | 88 | 1016.4 |
| 20260502091520 | 4 | 165 | 0.0 | 0.0 | 0.00 | 0.00 | 0.00 | 86 | 1016.4 |
| 20260502071501 | 7 | 165 | 0.0 | 0.0 | 0.00 | 0.00 | 0.00 | 80 | 1016.4 |